sat.trackr.live / text

‹ back to catalog

STARLINK-4782

NORAD 53933 · 2022-119AZ

PAYLOAD ACTIVE UNKNOWN

§ Identity

Operator
Country
US
Launch date
2022-09-24
Launch site
AFETR
Launch vehicle
Mass (kg)
RCS (m²)

Purposes: comms

External: N2YO · Heavens-Above · Gunter

§ Orbital elements

Epoch: 2026-09-20T22:36:38.793888Z

Period
95.44 min
Inclination
53.1593°
Eccentricity
0.0001584
Mean motion
15.08820138 rev/d
Perigee alt
538.7 km
Apogee alt
540.9 km
Semi-major
6,917.9 km
B*
6.8040e-5
RAAN
146.7965°
Arg perigee
83.8552°
Mean anomaly
276.2620°
Rev number
22,144

§ Raw data

STARLINK-47821 53933U 22119AZ  26263.94211567  .00000794  00000+0  68040-4 0  99932 53933  53.1593 146.7965 0001584  83.8552 276.2620 15.08820138221442

JSON: /api/v1/satellites/53933 · /tle

For live sub-satellite position, see the globe view (requires WebGL).

§ Visibility from observer

Set your observer location to see the next 7 days of passes ≥ 10°. The values pass through the URL so the page stays shareable.

No JS? Fill the form by hand. The geolocation button needs JavaScript.